Zurück zum Katalog

HAWK-6A

AktivMilitärVLEO
NORAD 55327·PAYLOAD·🇺🇸 United States

Gestartet Jan 24, 2023 von Wallops Flight Facility

Loading…

Nächste Überflüge (nächste 24 Stunden)

TLE

AktuellSource: Space-Track

Epoche: Sep 14, 2026, 03:34 UTC

1 55327U 23011D   26257.14926506  .00003947  00000-0  16946-3 0  9996
2 55327  40.4974 191.3703 0003955 278.4633  81.5728 15.23598441201423

Verfolge HAWK-6A in Echtzeit mit AllMySat

Download on the App Store